Stündliche Wetter Wartowice

Heute, 20 Oktober, Dienstag

Zeit Temperatur Niederschläge Wind Luftdruck Luftfeuchtigkeit
00:00 +7°C° 0 mm 1 m/S 745 mmHg 85%
01:00 +6°C° 0 mm 1 m/S 745 mmHg 85%
02:00 +6°C° 0 mm 1 m/S 745 mmHg 85%
03:00 +6°C° 0 mm 1 m/S 744 mmHg 85%
04:00 +6°C° 0 mm 1 m/S 744 mmHg 85%
05:00 +6°C° 0 mm 1 m/S 744 mmHg 85%
06:00 +5°C° 0 mm 2 m/S 744 mmHg 85%
07:00 +5°C° 0 mm 2 m/S 744 mmHg 85%
08:00 +6°C° 0 mm 2 m/S 743 mmHg 81%
09:00 +8°C° 0 mm 2 m/S 743 mmHg 76%
10:00 +10°C° 0 mm 3 m/S 743 mmHg 71%
11:00 +11°C° 0 mm 3 m/S 742 mmHg 68%
12:00 +12°C° 0 mm 3 m/S 742 mmHg 64%
13:00 +13°C° 0 mm 3 m/S 742 mmHg 61%
14:00 +12°C° 0 mm 3 m/S 741 mmHg 64%
15:00 +12°C° 0 mm 3 m/S 741 mmHg 67%
16:00 +12°C° 0 mm 2 m/S 740 mmHg 69%
17:00 +11°C° 0 mm 3 m/S 740 mmHg 72%
18:00 +10°C° 0 mm 3 m/S 740 mmHg 74%
19:00 +8°C° 0 mm 4 m/S 740 mmHg 76%
20:00 +8°C° 0 mm 4 m/S 740 mmHg 75%
21:00 +8°C° 0 mm 4 m/S 740 mmHg 73%
22:00 +10°C° 0 mm 4 m/S 740 mmHg 72%
23:00 +10°C° 0 mm 4 m/S 740 mmHg 72%

Morgen, 21 Oktober, Mittwoch

Zeit Temperatur Niederschläge Wind Luftdruck Luftfeuchtigkeit
00:00 +10°C° 0 mm 3 m/S 740 mmHg 72%
01:00 +10°C° 0 mm 3 m/S 740 mmHg 72%
02:00 +10°C° 0 mm 3 m/S 740 mmHg 72%
03:00 +10°C° 0 mm 3 m/S 739 mmHg 72%
04:00 +10°C° 0 mm 2 m/S 739 mmHg 72%
05:00 +10°C° 0 mm 2 m/S 739 mmHg 73%
06:00 +10°C° 0 mm 2 m/S 739 mmHg 73%
07:00 +9°C° 0 mm 2 m/S 739 mmHg 73%
08:00 +10°C° 0 mm 2 m/S 739 mmHg 72%
09:00 +10°C° 0 mm 2 m/S 739 mmHg 71%
10:00 +12°C° 0 mm 2 m/S 739 mmHg 70%
11:00 +13°C° 0 mm 2 m/S 739 mmHg 65%
12:00 +15°C° 0 mm 2 m/S 739 mmHg 59%
13:00 +17°C° 0 mm 2 m/S 739 mmHg 54%
14:00 +16°C° 0 mm 2 m/S 739 mmHg 57%
15:00 +16°C° 0 mm 3 m/S 738 mmHg 60%
16:00 +14°C° 0 mm 3 m/S 738 mmHg 64%
17:00 +14°C° 0 mm 3 m/S 738 mmHg 65%
18:00 +13°C° 0 mm 3 m/S 739 mmHg 67%
19:00 +12°C° 0 mm 3 m/S 739 mmHg 68%
20:00 +12°C° 0 mm 4 m/S 739 mmHg 67%
21:00 +12°C° 0 mm 4 m/S 739 mmHg 67%
22:00 +12°C° 0 mm 4 m/S 739 mmHg 66%
23:00 +12°C° 0 mm 4 m/S 740 mmHg 67%

übermorgen, 22 Oktober, Donnerstag

Zeit Temperatur Niederschläge Wind Luftdruck Luftfeuchtigkeit
00:00 +12°C° 0 mm 4 m/S 740 mmHg 68%
01:00 +12°C° 0 mm 4 m/S 740 mmHg 69%
02:00 +12°C° 0 mm 4 m/S 740 mmHg 69%
03:00 +12°C° 0 mm 3 m/S 740 mmHg 69%
04:00 +12°C° 0 mm 3 m/S 740 mmHg 70%
05:00 +12°C° 0 mm 3 m/S 740 mmHg 70%
06:00 +12°C° 0 mm 3 m/S 740 mmHg 70%
07:00 +12°C° 0 mm 3 m/S 740 mmHg 70%
08:00 +13°C° 0 mm 3 m/S 740 mmHg 66%
09:00 +15°C° 0 mm 4 m/S 740 mmHg 63%
10:00 +18°C° 0 mm 4 m/S 741 mmHg 60%
11:00 +18°C° 0 mm 4 m/S 740 mmHg 58%
12:00 +19°C° 0 mm 4 m/S 740 mmHg 56%
13:00 +20°C° 0 mm 4 m/S 740 mmHg 54%
14:00 +19°C° 0 mm 4 m/S 740 mmHg 58%
15:00 +18°C° 0 mm 3 m/S 740 mmHg 62%
16:00 +17°C° 0 mm 3 m/S 739 mmHg 65%
17:00 +16°C° 0 mm 3 m/S 739 mmHg 68%
18:00 +14°C° 0 mm 3 m/S 739 mmHg 71%
19:00 +13°C° 0 mm 3 m/S 740 mmHg 74%
20:00 +13°C° 0 mm 3 m/S 740 mmHg 72%
21:00 +14°C° 0 mm 4 m/S 739 mmHg 71%
22:00 +14°C° 0 mm 4 m/S 739 mmHg 69%
23:00 +14°C° 0 mm 4 m/S 739 mmHg 70%

23 Oktober, Freitag

Zeit Temperatur Niederschläge Wind Luftdruck Luftfeuchtigkeit
00:00 +13°C° 0 mm 4 m/S 739 mmHg 71%
01:00 +13°C° 0 mm 3 m/S 739 mmHg 73%
02:00 +13°C° 0 mm 4 m/S 739 mmHg 73%
03:00 +13°C° 0 mm 4 m/S 738 mmHg 74%
04:00 +13°C° 0 mm 5 m/S 738 mmHg 75%
05:00 +12°C° 0 mm 4 m/S 738 mmHg 78%
06:00 +12°C° 0 mm 4 m/S 738 mmHg 81%
07:00 +12°C° 0 mm 3 m/S 737 mmHg 84%
08:00 +13°C° 0 mm 4 m/S 738 mmHg 79%
09:00 +14°C° 0 mm 4 m/S 738 mmHg 74%
10:00 +16°C° 0 mm 5 m/S 738 mmHg 70%
11:00 +16°C° 0 mm 5 m/S 738 mmHg 69%
12:00 +16°C° 0 mm 5 m/S 738 mmHg 69%
13:00 +17°C° 0 mm 5 m/S 738 mmHg 68%
14:00 +17°C° 0.2 mm 4 m/S 738 mmHg 71%
15:00 +17°C° 0.2 mm 4 m/S 737 mmHg 75%
16:00 +16°C° 0.2 mm 3 m/S 737 mmHg 78%
17:00 +16°C° 0.3 mm 3 m/S 737 mmHg 80%
18:00 +14°C° 0.3 mm 4 m/S 737 mmHg 81%
19:00 +14°C° 0.3 mm 4 m/S 738 mmHg 83%
20:00 +13°C° 0.2 mm 4 m/S 738 mmHg 82%
21:00 +13°C° 0.2 mm 4 m/S 738 mmHg 82%
22:00 +13°C° 0.2 mm 5 m/S 738 mmHg 81%
23:00 +12°C° 0 mm 4 m/S 739 mmHg 83%

24 Oktober, Samstag

Zeit Temperatur Niederschläge Wind Luftdruck Luftfeuchtigkeit
00:00 +11°C° 0 mm 4 m/S 739 mmHg 85%
01:00 +10°C° 0 mm 4 m/S 739 mmHg 88%
02:00 +10°C° 0 mm 4 m/S 739 mmHg 86%
03:00 +10°C° 0 mm 4 m/S 739 mmHg 85%
04:00 +8°C° 0 mm 5 m/S 739 mmHg 84%
05:00 +8°C° 0 mm 5 m/S 739 mmHg 82%
06:00 +9°C° 0 mm 5 m/S 739 mmHg 81%
07:00 +9°C° 0 mm 6 m/S 740 mmHg 79%
08:00 +9°C° 0.2 mm 6 m/S 740 mmHg 79%
09:00 +9°C° 0.2 mm 6 m/S 740 mmHg 79%
10:00 +9°C° 0.2 mm 7 m/S 741 mmHg 79%
11:00 +10°C° 0.1 mm 7 m/S 741 mmHg 73%
12:00 +10°C° 0.1 mm 7 m/S 741 mmHg 68%
13:00 +11°C° 0.1 mm 7 m/S 742 mmHg 62%
14:00 +10°C° 0 mm 6 m/S 742 mmHg 65%
15:00 +10°C° 0 mm 5 m/S 742 mmHg 68%
16:00 +10°C° 0 mm 4 m/S 742 mmHg 70%
17:00 +10°C° 0 mm 3 m/S 742 mmHg 73%
18:00 +9°C° 0 mm 3 m/S 742 mmHg 76%
19:00 +8°C° 0 mm 2 m/S 743 mmHg 78%
20:00 +8°C° 0 mm 2 m/S 743 mmHg 81%
21:00 +8°C° 0 mm 2 m/S 743 mmHg 83%
22:00 +7°C° 0 mm 2 m/S 743 mmHg 86%
23:00 +7°C° 0 mm 2 m/S 743 mmHg 87%

25 Oktober, Sonntag

Zeit Temperatur Niederschläge Wind Luftdruck Luftfeuchtigkeit
00:00 +7°C° 0 mm 2 m/S 743 mmHg 88%
01:00 +7°C° 0 mm 2 m/S 743 mmHg 89%
02:00 +8°C° 0 mm 1 m/S 743 mmHg 89%
03:00 +8°C° 0 mm 1 m/S 743 mmHg 88%
04:00 +9°C° 0 mm 1 m/S 743 mmHg 88%
05:00 +8°C° 0 mm 1 m/S 743 mmHg 89%
06:00 +8°C° 0 mm 1 m/S 743 mmHg 90%
07:00 +8°C° 0 mm 1 m/S 743 mmHg 91%
08:00 +9°C° 0 mm 1 m/S 743 mmHg 84%
09:00 +11°C° 0 mm 1 m/S 743 mmHg 78%
10:00 +12°C° 0 mm 1 m/S 743 mmHg 72%
11:00 +13°C° 0 mm 1 m/S 742 mmHg 68%
12:00 +14°C° 0 mm 2 m/S 742 mmHg 65%
13:00 +15°C° 0 mm 2 m/S 742 mmHg 62%
14:00 +14°C° 0 mm 2 m/S 741 mmHg 66%
15:00 +13°C° 0 mm 2 m/S 741 mmHg 70%
16:00 +13°C° 0 mm 2 m/S 740 mmHg 74%
17:00 +12°C° 0 mm 2 m/S 740 mmHg 77%
18:00 +10°C° 0 mm 2 m/S 740 mmHg 81%
19:00 +9°C° 0 mm 2 m/S 739 mmHg 85%
20:00 +8°C° 0 mm 2 m/S 739 mmHg 85%
21:00 +8°C° 0 mm 2 m/S 739 mmHg 86%
22:00 +8°C° 0 mm 2 m/S 739 mmHg 86%
23:00 +8°C° 0 mm 2 m/S 738 mmHg 86%

26 Oktober, Montag

Zeit Temperatur Niederschläge Wind Luftdruck Luftfeuchtigkeit
00:00 +8°C° 0 mm 2 m/S 738 mmHg 86%
01:00 +7°C° 0 mm 2 m/S 737 mmHg 86%
02:00 +7°C° 0 mm 3 m/S 737 mmHg 86%
03:00 +7°C° 0 mm 3 m/S 736 mmHg 85%
04:00 +7°C° 0 mm 3 m/S 736 mmHg 84%
05:00 +7°C° 0 mm 3 m/S 736 mmHg 84%
06:00 +7°C° 0 mm 3 m/S 735 mmHg 84%
07:00 +7°C° 0 mm 3 m/S 735 mmHg 83%
08:00 +7°C° 0 mm 4 m/S 735 mmHg 78%
09:00 +10°C° 0 mm 4 m/S 735 mmHg 73%
10:00 +10°C° 0 mm 5 m/S 735 mmHg 67%
11:00 +12°C° 0 mm 4 m/S 735 mmHg 66%
12:00 +12°C° 0 mm 4 m/S 734 mmHg 64%
13:00 +13°C° 0 mm 3 m/S 734 mmHg 63%
14:00 +12°C° 0 mm 3 m/S 734 mmHg 66%
15:00 +13°C° 0 mm 2 m/S 734 mmHg 70%
16:00 +12°C° 0 mm 2 m/S 734 mmHg 73%
17:00 +12°C° 0 mm 2 m/S 734 mmHg 77%
18:00 +10°C° 0 mm 2 m/S 734 mmHg 80%
19:00 +9°C° 0 mm 2 m/S 734 mmHg 83%
20:00 +9°C° 0 mm 2 m/S 734 mmHg 85%
21:00 +8°C° 0 mm 2 m/S 735 mmHg 87%
22:00 +8°C° 0 mm 2 m/S 735 mmHg 88%
23:00 +8°C° 0 mm 2 m/S 735 mmHg 88%
Mehr zeigen

Wir brauchen deine Erlaubnis

Meteoprog und unser Service Anbieter werden persönliche Daten aufbewahren, so wie Cookies, Geräte Bezeichnung oder ähnliche Technologien von deinem Gerät und Prozess, so wie Persönliche Daten Inhalte und Werbungen, genauso wie social Media und den Verkehr zu analysieren.

  • Aufbewahrung und/oder Zugang zu deiner Geräte Informationen.

    Cookies, Geräte Bezeichnung oder andere Informationen, können aufbewahrt oder Zugang zu deinem Gerät erhalten, für den Grund, der oben angegeben wird.

  • Personalisierte Werbung und Inhalte, Messungen, Einblick in das Publikum und Produkt Entwicklung.

    Werbungen und Inhalte können personalisiert werden, basierend auf ein Profil. Mehr Daten können besser personalisierte Werbungen und Inhalte hinzufügen. Werbung und Inhalte können gezeigt und gemessen werden. Einblicke über das Publikum, welche die Werbung gesehen haben und den Inhalt, können abgeleitet werden. So wie Daten können genutzt werden, um es zu verbessern oder die Benutzer Erfahrung zu verbessern das System und die Software.

Wenn du “Ich stimme zu” klickst, erlaubst du uns, die Cookies zu benutzen die Geräte Bezeichnung, den Web oder ähnliche Technologien zu benutzen. Deine Settings, können in deinem Gerät bei deinem Browser geändert werden.

Für den bestimmten Zweck, berechtigten Interessen beruhen darauf, mehr als auf den Inhalt. Du kannst mehr darüber in unseren Privaten und Cookie Politik lesen.